Location: Unspecified
(48.8656°N, 0.0000°E)
Time: 04:53:17
(UTC+00:00)

Transit 2A Rocket - Pass Details

Date: 20 June 2019
Orbit: 590 x 913 km, 66.7° (Epoch: 16 August)

Event Time Altitude Azimuth Distance (km) Brightness Sun altitude
Rises 11:53:45 0° 237° (WSW) 3,539 8.6 64.5°
Reaches altitude 10° 11:56:25 10° 244° (WSW) 2,595 8.0 64.5°
Maximum altitude 12:02:12 44° 315° (NW) 1,215 6.5 64.6°
Drops below altitude 10° 12:07:46 10° 28° (NNE) 2,495 7.5 64.5°
Sets 12:10:18 0° 35° (NE) 3,390 8.1 64.5°
